Darstellungsparameter: Aktuell verwendete Einstellungen:
Skalierung der Graphiken ... ?
xyx+y,   Skalierungsfaktor:      Skalierung: Modus: x, Faktor: 1
Darstellungszeitraum ... ?
Vom - - bis: - -   Zeitraum: 23.08.2010 - 29.08.2010
Min/Max/Avg-Anzeige ... ?
Zeige MMA aktuell
Zeige MMA Monat
Zeige MMA alles
Zeige --A aktuell
Zeige --A Monat
Zeige --A alles
Keine MMA-Anzeige
MMA:
Average (ber die Originaldaten)
MMA-Basis: 23.08.2010 - 29.08.2010
Quicknavigation für Darstellung... ?
Tage:      1T, 2T, 3T, 5T -1T -2T -3T -5T +1T +2T +3T +5T
Wochen: 1W, 2W, 3W -1W -2W -3W +1W +2W +3W
Monate: 1M, 3M, 6M -1M -3M -6M +1M +3M +6M
Jahre:    1J, 3J, 5J, 10J -1J -3J -5J -10J +1J +3J +5J +10J
Nutze für die Darstellung ... ?
Originaldaten oder Mittelwerte auf ...
Stundenbasis Tagesbasis Wochenbasis
Monatsbasis Jahresbasis      Datenbasis: Original-Daten
Darstellen als:
Statistik (Auto) Statistik J:M      Darstellung:
Zur Graphik,    zurück zur Übersicht aller Sensoren.
 
Tabellarische Datenbersicht: ?
 
Sensor: Nr:Datum:Temp:Abs-Feuchte:Windchill:Wind:
Aussen-T/F 1 23-08-2010 00:02:03 21.1 C 11.98 g/m*3 21.1 C 0 km/h
2 23-08-2010 00:14:03 20.9 C 12.02 g/m*3 20.9 C 0 km/h
3 23-08-2010 00:26:03 20.9 C 12.02 g/m*3 20.9 C 0 km/h
4 23-08-2010 00:38:03 20.8 C 11.95 g/m*3 20.8 C 0 km/h
5 23-08-2010 00:50:03 20.7 C 12.06 g/m*3 20.7 C 0 km/h
6 23-08-2010 01:02:03 20.4 C 12.03 g/m*3 20.4 C 0 km/h
7 23-08-2010 01:14:03 20.3 C 12.31 g/m*3 20.3 C 0 km/h
8 23-08-2010 01:26:03 20.3 C 12.14 g/m*3 20.3 C 0 km/h
9 23-08-2010 01:38:03 20.4 C 12.21 g/m*3 20.4 C 0 km/h
10 23-08-2010 01:50:03 20.5 C 12.1 g/m*3 20.5 C 0 km/h
11 23-08-2010 02:02:03 20.4 C 12.21 g/m*3 20.4 C 0 km/h
12 23-08-2010 02:14:03 20.2 C 12.24 g/m*3 20.2 C 0 km/h
13 23-08-2010 02:26:03 19.8 C 12.3 g/m*3 19.8 C 0 km/h
14 23-08-2010 02:38:03 19.8 C 12.47 g/m*3 19.8 C 0 km/h
15 23-08-2010 02:50:04 19.9 C 12.37 g/m*3 19.9 C 0 km/h
16 23-08-2010 03:02:04 19.9 C 12.2 g/m*3 19.9 C 0 km/h
17 23-08-2010 03:14:04 19.9 C 12.37 g/m*3 19.9 C 0 km/h
18 23-08-2010 03:26:04 19.9 C 12.37 g/m*3 19.9 C 0 km/h
19 23-08-2010 03:38:04 19.7 C 12.23 g/m*3 19.7 C 0 km/h
20 23-08-2010 03:50:04 19.7 C 12.4 g/m*3 19.7 C 0 km/h
21 23-08-2010 04:02:04 19.6 C 12.32 g/m*3 19.6 C 0 km/h
22 23-08-2010 04:14:04 19.5 C 12.25 g/m*3 19.5 C 0 km/h
23 23-08-2010 04:26:04 19.5 C 12.42 g/m*3 19.5 C 0 km/h
24 23-08-2010 04:38:04 19.5 C 12.42 g/m*3 19.5 C 0 km/h
25 23-08-2010 04:50:04 19.5 C 12.25 g/m*3 19.5 C 0 km/h
Sensor: Nr:Datum:Temp:Abs-Feuchte:Windchill:Wind:
Aussen-T/F 26 23-08-2010 05:02:04 19.5 C 12.25 g/m*3 19.5 C 0 km/h
27 23-08-2010 05:14:04 19.4 C 12.18 g/m*3 19.4 C 0 km/h
28 23-08-2010 05:26:04 19.5 C 12.25 g/m*3 19.5 C 0 km/h
29 23-08-2010 05:38:04 19.4 C 12.18 g/m*3 19.4 C 0 km/h
30 23-08-2010 05:50:04 19.4 C 12.18 g/m*3 19.4 C 0 km/h
31 23-08-2010 06:02:04 19.5 C 12.42 g/m*3 19.5 C 0 km/h
32 23-08-2010 06:14:04 19.5 C 12.42 g/m*3 19.5 C 0 km/h
33 23-08-2010 06:26:04 19.4 C 12.35 g/m*3 19.4 C 0 km/h
34 23-08-2010 06:38:03 19.5 C 12.25 g/m*3 19.5 C 0 km/h
35 23-08-2010 06:50:02 19.5 C 12.25 g/m*3 19.5 C 0 km/h
36 23-08-2010 07:02:02 19.3 C 12.27 g/m*3 19.3 C 0 km/h
37 23-08-2010 07:14:03 19.5 C 12.59 g/m*3 19.5 C 0 km/h
38 23-08-2010 07:26:02 19.9 C 12.71 g/m*3 19.9 C 0 km/h
39 23-08-2010 07:38:02 20.4 C 12.38 g/m*3 20.4 C 0 km/h
40 23-08-2010 07:50:02 20.5 C 12.46 g/m*3 20.5 C 0 km/h
41 23-08-2010 08:02:02 20.6 C 12.71 g/m*3 20.6 C 0 km/h
42 23-08-2010 08:14:02 20.4 C 12.74 g/m*3 20.4 C 0 km/h
43 23-08-2010 08:26:01 19.5 C 13.26 g/m*3 19.5 C 0 km/h
44 23-08-2010 08:38:02 19.1 C 13.77 g/m*3 19.1 C 0 km/h
45 23-08-2010 08:50:02 19.1 C 13.93 g/m*3 19.1 C 0 km/h
46 23-08-2010 09:02:01 19.3 C 14.26 g/m*3 19.3 C 0 km/h
47 23-08-2010 09:14:01 19.4 C 14.52 g/m*3 19.4 C 0 km/h
48 23-08-2010 09:26:02 19.4 C 14.52 g/m*3 19.4 C 0 km/h
49 23-08-2010 09:38:01 19.4 C 14.52 g/m*3 19.4 C 0 km/h
50 23-08-2010 09:50:02 19.7 C 14.77 g/m*3 19.7 C 0 km/h
Sensor: Nr:Datum:Temp:Abs-Feuchte:Windchill:Wind:
Aussen-T/F 51 23-08-2010 10:02:01 20 C 14.86 g/m*3 20 C 0 km/h
52 23-08-2010 10:14:01 20.4 C 15.21 g/m*3 20.4 C 0 km/h
53 23-08-2010 10:26:01 20.7 C 15.12 g/m*3 20.7 C 0 km/h
54 23-08-2010 10:38:02 20.9 C 15.12 g/m*3 20.9 C 0 km/h
55 23-08-2010 10:50:02 21.2 C 15.01 g/m*3 21.2 C 0 km/h
56 23-08-2010 11:02:02 21.4 C 15 g/m*3 21.4 C 0 km/h
57 23-08-2010 11:14:02 21.7 C 14.69 g/m*3 21.7 C 0 km/h
58 23-08-2010 11:26:02 22.5 C 14.58 g/m*3 22.5 C 0 km/h
59 23-08-2010 11:38:02 22.8 C 14.63 g/m*3 22.8 C 0 km/h
60 23-08-2010 11:50:02 22.9 C 14.92 g/m*3 22.9 C 0 km/h
61 23-08-2010 12:02:02 22.5 C 14.78 g/m*3 22.5 C 0 km/h
62 23-08-2010 12:14:02 22.7 C 15.36 g/m*3 22.7 C 0 km/h
63 23-08-2010 12:26:02 23.3 C 16.1 g/m*3 23.3 C 0 km/h
64 23-08-2010 12:38:02 23.4 C 15.98 g/m*3 23.4 C 0 km/h
65 23-08-2010 12:50:01 23.5 C 15.86 g/m*3 23.5 C 0 km/h
66 23-08-2010 13:02:02 24.2 C 15.18 g/m*3 24.2 C 0 km/h
67 23-08-2010 13:14:02 24.9 C 14.42 g/m*3 24.9 C 0 km/h
68 23-08-2010 13:26:01 24 C 13.49 g/m*3 24 C 0 km/h
69 23-08-2010 13:38:01 23.1 C 13.85 g/m*3 23.1 C 0 km/h
70 23-08-2010 13:50:01 22.2 C 14.72 g/m*3 22.2 C 0 km/h
71 23-08-2010 14:02:01 21.9 C 14.86 g/m*3 21.9 C 0 km/h
72 23-08-2010 14:14:01 23.3 C 14.84 g/m*3 23.3 C 0 km/h
73 23-08-2010 14:26:01 24.8 C 14.11 g/m*3 24.8 C 0 km/h
74 23-08-2010 14:38:01 25.8 C 13.72 g/m*3 25.8 C 0 km/h
75 23-08-2010 14:50:01 25.9 C 13.32 g/m*3 25.9 C 0 km/h
Sensor: Nr:Datum:Temp:Abs-Feuchte:Windchill:Wind:
Aussen-T/F 76 23-08-2010 15:02:01 25.9 C 13.07 g/m*3 25.9 C 0 km/h
77 23-08-2010 15:14:01 25.9 C 12.59 g/m*3 25.9 C 0 km/h
78 23-08-2010 15:26:02 26.3 C 12.13 g/m*3 26.3 C 0 km/h
79 23-08-2010 15:38:01 25.9 C 11.86 g/m*3 25.9 C 0 km/h
80 23-08-2010 15:50:03 25.3 C 11.94 g/m*3 25.3 C 0 km/h
81 23-08-2010 16:02:02 25.9 C 11.38 g/m*3 25.9 C 0 km/h
82 23-08-2010 16:14:02 26.7 C 11.14 g/m*3 26.7 C 0 km/h
83 23-08-2010 16:26:02 26.6 C 11.33 g/m*3 26.6 C 0 km/h
84 23-08-2010 16:38:02 25.5 C 11.6 g/m*3 25.5 C 0 km/h
85 23-08-2010 16:50:02 25 C 11.51 g/m*3 25 C 0 km/h
86 23-08-2010 17:02:01 25.2 C 10.94 g/m*3 25.2 C 0 km/h
87 23-08-2010 17:14:01 24.6 C 11.25 g/m*3 24.6 C 0 km/h
88 23-08-2010 17:26:02 23.3 C 11.92 g/m*3 23.3 C 0 km/h
89 23-08-2010 17:38:02 22.7 C 12.53 g/m*3 22.7 C 0 km/h
90 23-08-2010 17:50:02 22.1 C 12.88 g/m*3 22.1 C 0 km/h
91 23-08-2010 18:02:01 21.9 C 13.31 g/m*3 21.9 C 0 km/h
92 23-08-2010 18:14:01 21.6 C 13.47 g/m*3 21.6 C 0 km/h
93 23-08-2010 18:26:01 21 C 13.74 g/m*3 21 C 0 km/h
94 23-08-2010 18:38:02 20.7 C 14.22 g/m*3 20.7 C 0 km/h
95 23-08-2010 18:50:02 20.4 C 13.98 g/m*3 20.4 C 0 km/h
96 23-08-2010 19:02:02 20.8 C 14.3 g/m*3 20.8 C 0 km/h
97 23-08-2010 19:14:02 20.9 C 13.84 g/m*3 20.9 C 0 km/h
98 23-08-2010 19:26:02 20.8 C 13.76 g/m*3 20.8 C 0 km/h
99 23-08-2010 19:38:02 20.7 C 13.5 g/m*3 20.7 C 0 km/h
100 23-08-2010 19:50:02 20.6 C 13.42 g/m*3 20.6 C 0 km/h
Sensor: Nr:Datum:Temp:Abs-Feuchte:Windchill:Wind:
Aussen-T/F 101 23-08-2010 20:02:02 20.5 C 13.17 g/m*3 20.5 C 0 km/h
102 23-08-2010 20:14:02 20.4 C 13.09 g/m*3 20.4 C 0 km/h
103 23-08-2010 20:26:02 20.4 C 12.91 g/m*3 20.4 C 0 km/h
104 23-08-2010 20:38:02 20.3 C 12.84 g/m*3 20.3 C 0 km/h
105 23-08-2010 20:50:02 20.1 C 12.69 g/m*3 20.1 C 0 km/h
106 23-08-2010 21:02:02 20 C 12.62 g/m*3 20 C 0 km/h
107 23-08-2010 21:14:02 19.8 C 12.64 g/m*3 19.8 C 0 km/h
108 23-08-2010 21:26:02 19.7 C 12.74 g/m*3 19.7 C 0 km/h
109 23-08-2010 21:38:02 19.7 C 12.57 g/m*3 19.7 C 0 km/h
110 23-08-2010 21:50:02 19.8 C 12.47 g/m*3 19.8 C 0 km/h
111 23-08-2010 22:03:03 19.7 C 12.4 g/m*3 19.7 C 0 km/h
112 23-08-2010 22:15:03 19.6 C 12.32 g/m*3 19.6 C 0 km/h
113 23-08-2010 22:27:03 19.6 C 12.15 g/m*3 19.6 C 0 km/h
114 23-08-2010 22:39:03 19.5 C 12.25 g/m*3 19.5 C 0 km/h
115 23-08-2010 22:51:03 19.5 C 12.08 g/m*3 19.5 C 0 km/h
116 23-08-2010 23:03:03 19.4 C 12.01 g/m*3 19.4 C 0 km/h
117 23-08-2010 23:15:03 19.3 C 11.94 g/m*3 19.3 C 0 km/h
118 23-08-2010 23:27:03 19.3 C 11.94 g/m*3 19.3 C 0 km/h
119 23-08-2010 23:39:03 19.2 C 11.87 g/m*3 19.2 C 0 km/h
120 23-08-2010 23:51:03 19.3 C 11.94 g/m*3 19.3 C 0 km/h
121 24-08-2010 00:03:03 19.2 C 12.04 g/m*3 19.2 C 0 km/h
122 24-08-2010 00:15:03 19.2 C 12.04 g/m*3 19.2 C 0 km/h
123 24-08-2010 00:27:03 19.1 C 11.97 g/m*3 19.1 C 0 km/h
124 24-08-2010 00:39:04 19.2 C 12.2 g/m*3 19.2 C 0 km/h
125 24-08-2010 00:51:04 19.2 C 12.2 g/m*3 19.2 C 0 km/h
Sensor: Nr:Datum:Temp:Abs-Feuchte:Windchill:Wind:
Aussen-T/F 126 24-08-2010 01:03:04 19.3 C 12.27 g/m*3 19.3 C 0 km/h
127 24-08-2010 01:15:04 19.2 C 12.37 g/m*3 19.2 C 0 km/h
128 24-08-2010 01:27:04 19.1 C 12.46 g/m*3 19.1 C 0 km/h
129 24-08-2010 01:39:04 19.2 C 12.53 g/m*3 19.2 C 0 km/h
130 24-08-2010 01:51:04 19.2 C 12.53 g/m*3 19.2 C 0 km/h
131 24-08-2010 02:03:04 19.3 C 12.44 g/m*3 19.3 C 0 km/h
132 24-08-2010 02:15:04 19.6 C 12.32 g/m*3 19.6 C 0 km/h
133 24-08-2010 02:27:04 19.9 C 12.37 g/m*3 19.9 C 0 km/h
134 24-08-2010 02:39:04 20 C 11.92 g/m*3 20 C 0 km/h
135 24-08-2010 02:51:04 19.6 C 12.32 g/m*3 19.6 C 0 km/h
136 24-08-2010 03:03:04 19 C 12.22 g/m*3 19 C 0 km/h
137 24-08-2010 03:15:04 18.7 C 12.33 g/m*3 18.7 C 0 km/h
138 24-08-2010 03:27:04 18.4 C 11.64 g/m*3 18.4 C 0 km/h
139 24-08-2010 03:39:04 17.9 C 11.76 g/m*3 17.9 C 0 km/h
140 24-08-2010 03:51:04 17.7 C 11.32 g/m*3 17.7 C 0 km/h
141 24-08-2010 04:03:04 18.1 C 9.73 g/m*3 18.1 C 0 km/h
142 24-08-2010 04:15:04 18.2 C 9.64 g/m*3 18.2 C 0 km/h
143 24-08-2010 04:27:04 18.1 C 9.43 g/m*3 18.1 C 0 km/h
144 24-08-2010 04:39:04 18 C 9.37 g/m*3 18 C 0 km/h
145 24-08-2010 04:51:05 17.9 C 9.47 g/m*3 17.9 C 0 km/h
146 24-08-2010 05:03:05 17.4 C 9.48 g/m*3 17.4 C 0 km/h
147 24-08-2010 05:15:05 17.3 C 9.58 g/m*3 17.3 C 0 km/h
148 24-08-2010 05:27:05 17.3 C 9.58 g/m*3 17.3 C 0 km/h
149 24-08-2010 05:39:05 17.2 C 9.37 g/m*3 17.2 C 0 km/h
150 24-08-2010 05:51:05 17 C 9.55 g/m*3 17 C 0 km/h
Sensor: Nr:Datum:Temp:Abs-Feuchte:Windchill:Wind:
Aussen-T/F 151 24-08-2010 06:03:05 17.1 C 9.46 g/m*3 17.1 C 0 km/h
152 24-08-2010 06:15:05 17.1 C 9.32 g/m*3 17.1 C 0 km/h
153 24-08-2010 06:27:05 17 C 9.55 g/m*3 17 C 0 km/h
154 24-08-2010 06:39:05 17.4 C 9.63 g/m*3 17.4 C 0 km/h
155 24-08-2010 06:51:05 16.8 C 9.44 g/m*3 16.8 C 0 km/h
156 24-08-2010 07:03:05 16.8 C 9.58 g/m*3 16.8 C 0 km/h
157 24-08-2010 07:15:02 16.7 C 9.38 g/m*3 16.7 C 0 km/h
158 24-08-2010 07:27:02 16.4 C 9.21 g/m*3 16.4 C 0 km/h
159 24-08-2010 07:39:03 16.2 C 8.96 g/m*3 16.2 C 0 km/h
160 24-08-2010 07:51:02 16.1 C 9.05 g/m*3 16.1 C 0 km/h
161 24-08-2010 08:03:02 16 C 8.99 g/m*3 16 C 0 km/h
162 24-08-2010 08:15:02 16.1 C 8.64 g/m*3 16.1 C 0 km/h
163 24-08-2010 08:27:02 16.2 C 8.41 g/m*3 16.2 C 0 km/h
164 24-08-2010 08:39:02 16.2 C 8.27 g/m*3 16.2 C 0 km/h
165 24-08-2010 08:51:02 16.3 C 7.91 g/m*3 16.3 C 0 km/h
166 24-08-2010 09:03:02 16.4 C 7.82 g/m*3 16.4 C 0 km/h
167 24-08-2010 09:15:02 16.5 C 7.44 g/m*3 16.5 C 0 km/h
168 24-08-2010 09:27:02 16.7 C 7.11 g/m*3 16.7 C 0 km/h
169 24-08-2010 09:39:01 17 C 6.95 g/m*3 17 C 0 km/h
170 24-08-2010 09:51:02 17.2 C 7.18 g/m*3 17.2 C 0 km/h
171 24-08-2010 10:03:01 17.4 C 7.11 g/m*3 17.4 C 0 km/h
172 24-08-2010 10:15:02 17.7 C 7.39 g/m*3 17.7 C 0 km/h
173 24-08-2010 10:27:02 17.8 C 7.29 g/m*3 17.8 C 0 km/h
174 24-08-2010 10:39:02 18 C 7.07 g/m*3 18 C 0 km/h
175 24-08-2010 10:51:02 18.5 C 7.28 g/m*3 18.5 C 0 km/h
Sensor: Nr:Datum:Temp:Abs-Feuchte:Windchill:Wind:
Aussen-T/F 176 24-08-2010 11:03:03 18.7 C 7.36 g/m*3 18.7 C 0 km/h
177 24-08-2010 11:15:02 18.9 C 6.97 g/m*3 18.9 C 0 km/h
178 24-08-2010 11:27:02 19.1 C 6.72 g/m*3 19.1 C 0 km/h
179 24-08-2010 11:39:02 19.4 C 6.51 g/m*3 19.4 C 0 km/h
180 24-08-2010 11:51:01 19.3 C 6.8 g/m*3 19.3 C 0 km/h
181 24-08-2010 12:03:02 19.1 C 6.56 g/m*3 19.1 C 0 km/h
182 24-08-2010 12:15:01 19.8 C 6.66 g/m*3 19.8 C 0 km/h
183 24-08-2010 12:27:01 20.1 C 6.26 g/m*3 20.1 C 0 km/h
184 24-08-2010 12:39:02 20 C 6.05 g/m*3 20 C 0 km/h
185 24-08-2010 12:51:01 21.2 C 6.12 g/m*3 21.2 C 0 km/h
186 24-08-2010 13:03:02 20.3 C 6.16 g/m*3 20.3 C 0 km/h
187 24-08-2010 13:15:01 20.5 C 6.23 g/m*3 20.5 C 0 km/h
188 24-08-2010 13:27:01 21.5 C 5.85 g/m*3 21.5 C 0 km/h
189 24-08-2010 13:39:02 21.7 C 5.72 g/m*3 21.7 C 0 km/h
190 24-08-2010 13:51:01 21 C 5.68 g/m*3 21 C 0 km/h
191 24-08-2010 14:03:02 20.8 C 5.79 g/m*3 20.8 C 0 km/h
192 24-08-2010 14:15:02 20.9 C 5.83 g/m*3 20.9 C 0 km/h
193 24-08-2010 14:27:02 21.7 C 5.34 g/m*3 21.7 C 0 km/h
194 24-08-2010 14:39:02 22.2 C 5.3 g/m*3 22.2 C 0 km/h
195 24-08-2010 14:51:02 21.7 C 5.15 g/m*3 21.7 C 0 km/h
196 24-08-2010 15:03:02 21.2 C 5.74 g/m*3 21.2 C 0 km/h
197 24-08-2010 15:15:02 21.2 C 5.19 g/m*3 21.2 C 0 km/h
198 24-08-2010 15:27:02 21.6 C 4.93 g/m*3 21.6 C 0 km/h
199 24-08-2010 15:39:01 22.1 C 5.08 g/m*3 22.1 C 0 km/h
200 24-08-2010 15:51:02 23 C 4.52 g/m*3 23 C 0 km/h
Sensor: Nr:Datum:Temp:Abs-Feuchte:Windchill:Wind:
Aussen-T/F 201 24-08-2010 16:03:01 23.2 C 4.57 g/m*3 23.2 C 0 km/h
202 24-08-2010 16:15:02 23.2 C 4.37 g/m*3 23.2 C 0 km/h
203 24-08-2010 16:27:03 23 C 4.73 g/m*3 23 C 0 km/h
204 24-08-2010 16:39:01 23.8 C 4.73 g/m*3 23.8 C 0 km/h
205 24-08-2010 16:51:02 22 C 4.66 g/m*3 22 C 0 km/h
206 24-08-2010 17:03:02 23 C 4.52 g/m*3 23 C 0 km/h
207 24-08-2010 17:15:02 23.4 C 4.21 g/m*3 23.4 C 0 km/h
208 24-08-2010 17:27:02 23.6 C 4.68 g/m*3 23.6 C 0 km/h
209 24-08-2010 17:39:03 22.9 C 4.9 g/m*3 22.9 C 0 km/h
210 24-08-2010 17:51:02 23.2 C 5.2 g/m*3 23.2 C 0 km/h
211 24-08-2010 18:03:02 23.8 C 4.95 g/m*3 23.8 C 0 km/h
212 24-08-2010 18:15:02 22.8 C 5.08 g/m*3 22.8 C 0 km/h
213 24-08-2010 18:27:02 22.9 C 5.11 g/m*3 22.9 C 0 km/h
214 24-08-2010 18:39:02 22.8 C 5.28 g/m*3 22.8 C 0 km/h
215 24-08-2010 18:51:02 22.3 C 5.13 g/m*3 22.3 C 0 km/h
216 24-08-2010 19:03:03 22.5 C 5.19 g/m*3 22.5 C 0 km/h
217 24-08-2010 19:15:02 21.7 C 5.15 g/m*3 21.7 C 0 km/h
218 24-08-2010 19:27:02 22.1 C 5.08 g/m*3 22.1 C 0 km/h
219 24-08-2010 19:39:02 21.3 C 5.03 g/m*3 21.3 C 0 km/h
220 24-08-2010 19:51:01 20.8 C 5.43 g/m*3 20.8 C 0 km/h
221 24-08-2010 20:03:02 20.4 C 5.48 g/m*3 20.4 C 0 km/h
222 24-08-2010 20:15:01 20.3 C 5.8 g/m*3 20.3 C 0 km/h
223 24-08-2010 20:27:01 19.7 C 5.94 g/m*3 19.7 C 0 km/h
224 24-08-2010 20:39:02 19.4 C 5.84 g/m*3 19.4 C 0 km/h
225 24-08-2010 20:51:01 19 C 5.87 g/m*3 19 C 0 km/h
Sensor: Nr:Datum:Temp:Abs-Feuchte:Windchill:Wind:
Aussen-T/F 226 24-08-2010 21:03:02 18.7 C 5.92 g/m*3 18.7 C 0 km/h
227 24-08-2010 21:15:02 18.4 C 6.13 g/m*3 18.4 C 0 km/h
228 24-08-2010 21:27:02 18.2 C 6.22 g/m*3 18.2 C 0 km/h
229 24-08-2010 21:39:02 18.1 C 6.18 g/m*3 18.1 C 0 km/h
230 24-08-2010 21:51:01 18 C 6.14 g/m*3 18 C 0 km/h
231 24-08-2010 22:04:03 17.7 C 6.19 g/m*3 17.7 C 0 km/h
232 24-08-2010 22:16:03 17.6 C 6.15 g/m*3 17.6 C 0 km/h
233 24-08-2010 22:28:03 17.5 C 6.26 g/m*3 17.5 C 0 km/h
234 24-08-2010 22:40:03 17.1 C 6.4 g/m*3 17.1 C 0 km/h
235 24-08-2010 22:52:03 17.1 C 6.4 g/m*3 17.1 C 0 km/h
236 24-08-2010 23:04:03 17 C 6.22 g/m*3 17 C 0 km/h
237 24-08-2010 23:16:03 16.8 C 6.43 g/m*3 16.8 C 0 km/h
238 24-08-2010 23:28:03 16.8 C 6.43 g/m*3 16.8 C 0 km/h
239 24-08-2010 23:40:03 16.7 C 6.54 g/m*3 16.7 C 0 km/h
240 24-08-2010 23:52:03 16.6 C 6.5 g/m*3 16.6 C 0 km/h
241 25-08-2010 00:04:03 16.4 C 6.42 g/m*3 16.4 C 0 km/h
242 25-08-2010 00:16:03 16.4 C 6.56 g/m*3 16.4 C 0 km/h
243 25-08-2010 00:28:03 16.2 C 6.48 g/m*3 16.2 C 0 km/h
244 25-08-2010 00:40:04 16 C 6.54 g/m*3 16 C 0 km/h
245 25-08-2010 00:52:04 15.8 C 6.73 g/m*3 15.8 C 0 km/h
246 25-08-2010 01:04:04 15.8 C 6.73 g/m*3 15.8 C 0 km/h
247 25-08-2010 01:16:04 15.6 C 6.78 g/m*3 15.6 C 0 km/h
248 25-08-2010 01:28:04 15.5 C 6.87 g/m*3 15.5 C 0 km/h
249 25-08-2010 01:40:04 15.4 C 6.83 g/m*3 15.4 C 0 km/h
250 25-08-2010 01:52:04 15.3 C 6.79 g/m*3 15.3 C 0 km/h
Sensor: Nr:Datum:Temp:Abs-Feuchte:Windchill:Wind:
Aussen-T/F 251 25-08-2010 02:04:04 15.1 C 6.97 g/m*3 15.1 C 0 km/h
252 25-08-2010 02:16:04 14.8 C 7.09 g/m*3 14.8 C 0 km/h
253 25-08-2010 02:28:04 14.6 C 7.13 g/m*3 14.6 C 0 km/h
254 25-08-2010 02:40:04 14.5 C 7.21 g/m*3 14.5 C 0 km/h
255 25-08-2010 02:52:04 14.3 C 7.13 g/m*3 14.3 C 0 km/h
256 25-08-2010 03:04:04 14.2 C 7.2 g/m*3 14.2 C 0 km/h
257 25-08-2010 03:16:04 13.9 C 7.55 g/m*3 13.9 C 0 km/h
258 25-08-2010 03:28:04 13.7 C 7.58 g/m*3 13.7 C 0 km/h
259 25-08-2010 03:40:04 13.6 C 7.77 g/m*3 13.6 C 0 km/h
260 25-08-2010 03:52:04 13.4 C 7.67 g/m*3 13.4 C 0 km/h
261 25-08-2010 04:04:04 13.4 C 7.79 g/m*3 13.4 C 0 km/h
262 25-08-2010 04:16:04 13.4 C 7.79 g/m*3 13.4 C 0 km/h
263 25-08-2010 04:28:04 13.4 C 7.67 g/m*3 13.4 C 0 km/h
264 25-08-2010 04:40:04 13.4 C 7.67 g/m*3 13.4 C 0 km/h
265 25-08-2010 04:52:05 13.4 C 7.56 g/m*3 13.4 C 0 km/h
266 25-08-2010 05:04:05 13.6 C 7.53 g/m*3 13.6 C 0 km/h
267 25-08-2010 05:16:05 13.6 C 7.41 g/m*3 13.6 C 0 km/h
268 25-08-2010 05:28:05 13.4 C 7.44 g/m*3 13.4 C 0 km/h
269 25-08-2010 05:40:05 13.2 C 7.58 g/m*3 13.2 C 0 km/h
270 25-08-2010 05:52:05 13.1 C 7.65 g/m*3 13.1 C 0 km/h
271 25-08-2010 06:04:05 13 C 7.6 g/m*3 13 C 0 km/h
272 25-08-2010 06:16:05 13.1 C 7.65 g/m*3 13.1 C 0 km/h
273 25-08-2010 06:28:05 12.9 C 7.78 g/m*3 12.9 C 0 km/h
274 25-08-2010 06:40:05 12.9 C 7.78 g/m*3 12.9 C 0 km/h
275 25-08-2010 06:52:05 12.8 C 7.73 g/m*3 12.8 C 0 km/h
Sensor: Nr:Datum:Temp:Abs-Feuchte:Windchill:Wind:
Aussen-T/F 276 25-08-2010 07:04:02 12.7 C 7.79 g/m*3 12.7 C 0 km/h
277 25-08-2010 07:16:03 12.8 C 7.84 g/m*3 12.8 C 0 km/h
278 25-08-2010 07:28:03 12.8 C 7.84 g/m*3 12.8 C 0 km/h
279 25-08-2010 07:40:02 12.7 C 7.79 g/m*3 12.7 C 0 km/h
280 25-08-2010 07:52:02 12.8 C 7.95 g/m*3 12.8 C 0 km/h
281 25-08-2010 08:04:01 13.1 C 7.87 g/m*3 13.1 C 0 km/h
282 25-08-2010 08:16:01 13.4 C 7.9 g/m*3 13.4 C 0 km/h
283 25-08-2010 08:28:01 13.5 C 7.84 g/m*3 13.5 C 0 km/h
284 25-08-2010 08:40:01 13.8 C 7.86 g/m*3 13.8 C 0 km/h
285 25-08-2010 08:52:03 13.9 C 7.79 g/m*3 13.9 C 0 km/h
286 25-08-2010 09:04:02 14.2 C 7.82 g/m*3 14.2 C 0 km/h
287 25-08-2010 09:16:02 14.7 C 8.06 g/m*3 14.7 C 0 km/h
288 25-08-2010 09:28:03 14.9 C 7.9 g/m*3 14.9 C 0 km/h
289 25-08-2010 09:40:02 15.2 C 7.79 g/m*3 15.2 C 0 km/h
290 25-08-2010 09:52:02 15.6 C 7.98 g/m*3 15.6 C 0 km/h
291 25-08-2010 10:04:01 16.1 C 7.81 g/m*3 16.1 C 0 km/h
292 25-08-2010 10:16:02 16.3 C 7.77 g/m*3 16.3 C 0 km/h
293 25-08-2010 10:28:02 16.3 C 7.77 g/m*3 16.3 C 0 km/h
294 25-08-2010 10:40:02 16.3 C 7.77 g/m*3 16.3 C 0 km/h
295 25-08-2010 10:52:02 16.5 C 7.86 g/m*3 16.5 C 0 km/h
296 25-08-2010 11:04:02 17.1 C 7.71 g/m*3 17.1 C 0 km/h
297 25-08-2010 11:16:01 17.4 C 7.85 g/m*3 17.4 C 0 km/h
298 25-08-2010 11:28:01 17.7 C 7.85 g/m*3 17.7 C 0 km/h
299 25-08-2010 11:40:02 18.1 C 7.88 g/m*3 18.1 C 0 km/h
300 25-08-2010 11:52:02 19.2 C 7.75 g/m*3 19.2 C 0 km/h
Sensor: Nr:Datum:Temp:Abs-Feuchte:Windchill:Wind:
Aussen-T/F 301 25-08-2010 12:04:02 19.7 C 7.47 g/m*3 19.7 C 0 km/h
302 25-08-2010 12:16:01 19.9 C 7.39 g/m*3 19.9 C 0 km/h
303 25-08-2010 12:28:01 20.4 C 7.43 g/m*3 20.4 C 0 km/h
304 25-08-2010 12:40:02 20 C 6.91 g/m*3 20 C 0 km/h
305 25-08-2010 12:52:02 20 C 6.74 g/m*3 20 C 0 km/h
306 25-08-2010 13:04:02 20.4 C 6.9 g/m*3 20.4 C 0 km/h
307 25-08-2010 13:16:02 20.7 C 6.84 g/m*3 20.7 C 0 km/h
308 25-08-2010 13:28:02 20.9 C 6.56 g/m*3 20.9 C 0 km/h
309 25-08-2010 13:40:02 20.8 C 6.52 g/m*3 20.8 C 0 km/h
310 25-08-2010 13:52:01 21.3 C 6.52 g/m*3 21.3 C 0 km/h
311 25-08-2010 14:04:02 21.2 C 6.49 g/m*3 21.2 C 0 km/h
312 25-08-2010 14:16:01 21.2 C 6.3 g/m*3 21.2 C 0 km/h
313 25-08-2010 14:28:01 21.7 C 6.49 g/m*3 21.7 C 0 km/h
314 25-08-2010 14:40:01 21.3 C 6.52 g/m*3 21.3 C 0 km/h
315 25-08-2010 14:52:01 21.9 C 6.37 g/m*3 21.9 C 0 km/h
316 25-08-2010 15:04:02 22.5 C 6.39 g/m*3 22.5 C 0 km/h
317 25-08-2010 15:16:01 23.1 C 6.2 g/m*3 23.1 C 0 km/h
318 25-08-2010 15:28:01 23.9 C 6.06 g/m*3 23.9 C 0 km/h
319 25-08-2010 15:40:01 24.1 C 5.69 g/m*3 24.1 C 0 km/h
320 25-08-2010 15:52:01 24.1 C 6.13 g/m*3 24.1 C 0 km/h
321 25-08-2010 16:04:01 24.3 C 5.53 g/m*3 24.3 C 0 km/h
322 25-08-2010 16:16:02 24.3 C 5.53 g/m*3 24.3 C 0 km/h
323 25-08-2010 16:28:02 25.3 C 5.62 g/m*3 25.3 C 0 km/h
324 25-08-2010 16:40:01 24.7 C 5.66 g/m*3 24.7 C 0 km/h
325 25-08-2010 16:52:01 23.7 C 5.99 g/m*3 23.7 C 0 km/h
Sensor: Nr:Datum:Temp:Abs-Feuchte:Windchill:Wind:
Aussen-T/F 326 25-08-2010 17:04:02 23.4 C 6.73 g/m*3 23.4 C 0 km/h
327 25-08-2010 17:16:01 23.3 C 6.48 g/m*3 23.3 C 0 km/h
328 25-08-2010 17:28:01 23.1 C 6.41 g/m*3 23.1 C 0 km/h
329 25-08-2010 17:40:01 23.2 C 6.86 g/m*3 23.2 C 0 km/h
330 25-08-2010 17:52:01 23 C 6.78 g/m*3 23 C 0 km/h
331 25-08-2010 18:04:02 22.2 C 6.87 g/m*3 22.2 C 0 km/h
332 25-08-2010 18:16:02 22 C 6.79 g/m*3 22 C 0 km/h
333 25-08-2010 18:28:02 22 C 6.79 g/m*3 22 C 0 km/h
334 25-08-2010 18:40:01 21.8 C 7.48 g/m*3 21.8 C 0 km/h
335 25-08-2010 18:52:01 21.5 C 7.54 g/m*3 21.5 C 0 km/h
336 25-08-2010 19:04:01 20.8 C 7.97 g/m*3 20.8 C 0 km/h
337 25-08-2010 19:16:02 20.1 C 8 g/m*3 20.1 C 0 km/h
338 25-08-2010 19:28:02 20.2 C 7.87 g/m*3 20.2 C 0 km/h
339 25-08-2010 19:40:01 20 C 7.95 g/m*3 20 C 0 km/h
340 25-08-2010 19:52:02 20 C 7.78 g/m*3 20 C 0 km/h
341 25-08-2010 20:04:01 19.7 C 8.15 g/m*3 19.7 C 0 km/h
342 25-08-2010 20:16:02 19.4 C 8.18 g/m*3 19.4 C 0 km/h
343 25-08-2010 20:28:02 19 C 8.15 g/m*3 19 C 0 km/h
344 25-08-2010 20:40:01 18.8 C 8.21 g/m*3 18.8 C 0 km/h
345 25-08-2010 20:52:02 18.3 C 8.44 g/m*3 18.3 C 0 km/h
346 25-08-2010 21:04:02 18.1 C 8.19 g/m*3 18.1 C 0 km/h
347 25-08-2010 21:16:02 18.1 C 8.34 g/m*3 18.1 C 0 km/h
348 25-08-2010 21:28:02 18.1 C 8.34 g/m*3 18.1 C 0 km/h
349 25-08-2010 21:40:02 18.2 C 8.39 g/m*3 18.2 C 0 km/h
350 25-08-2010 21:52:02 18.1 C 8.5 g/m*3 18.1 C 0 km/h
Sensor: Nr:Datum:Temp:Abs-Feuchte:Windchill:Wind:
Aussen-T/F 351 25-08-2010 22:04:01 17.9 C 8.55 g/m*3 17.9 C 0 km/h
352 25-08-2010 22:17:04 17.7 C 8.45 g/m*3 17.7 C 0 km/h
353 25-08-2010 22:29:04 17.5 C 8.35 g/m*3 17.5 C 0 km/h
354 25-08-2010 22:41:04 17.4 C 8.6 g/m*3 17.4 C 0 km/h
355 25-08-2010 22:53:04 17.3 C 8.54 g/m*3 17.3 C 0 km/h
356 25-08-2010 23:05:04 17.2 C 8.64 g/m*3 17.2 C 0 km/h
357 25-08-2010 23:17:04 17.4 C 8.74 g/m*3 17.4 C 0 km/h
358 25-08-2010 23:29:04 17.4 C 8.74 g/m*3 17.4 C 0 km/h
359 25-08-2010 23:41:04 17.3 C 8.99 g/m*3 17.3 C 0 km/h
360 25-08-2010 23:53:04 17.2 C 8.93 g/m*3 17.2 C 0 km/h
361 26-08-2010 00:05:04 17.1 C 9.03 g/m*3 17.1 C 0 km/h
362 26-08-2010 00:17:04 17.2 C 9.08 g/m*3 17.2 C 0 km/h
363 26-08-2010 00:29:04 17.3 C 9.13 g/m*3 17.3 C 0 km/h
364 26-08-2010 00:41:04 17.4 C 9.04 g/m*3 17.4 C 0 km/h
365 26-08-2010 00:53:04 17.4 C 9.04 g/m*3 17.4 C 0 km/h
366 26-08-2010 01:05:05 17.5 C 9.24 g/m*3 17.5 C 0 km/h
367 26-08-2010 01:17:05 17.5 C 9.09 g/m*3 17.5 C 0 km/h
368 26-08-2010 01:29:05 17.5 C 9.09 g/m*3 17.5 C 0 km/h
369 26-08-2010 01:41:05 17.5 C 9.09 g/m*3 17.5 C 0 km/h
370 26-08-2010 01:53:05 17.4 C 9.04 g/m*3 17.4 C 0 km/h
371 26-08-2010 02:05:05 16.9 C 9.78 g/m*3 16.9 C 0 km/h
372 26-08-2010 02:17:05 17.1 C 10.19 g/m*3 17.1 C 0 km/h
373 26-08-2010 02:29:05 16.7 C 10.09 g/m*3 16.7 C 0 km/h
374 26-08-2010 02:41:05 17 C 9.84 g/m*3 17 C 0 km/h
375 26-08-2010 02:53:05 16.7 C 9.95 g/m*3 16.7 C 0 km/h
Sensor: Nr:Datum:Temp:Abs-Feuchte:Windchill:Wind:
Aussen-T/F 376 26-08-2010 03:05:05 16.8 C 10.29 g/m*3 16.8 C 0 km/h
377 26-08-2010 03:17:05 16.8 C 10.29 g/m*3 16.8 C 0 km/h
378 26-08-2010 03:29:05 16.9 C 9.92 g/m*3 16.9 C 0 km/h
379 26-08-2010 03:41:05 16.9 C 9.92 g/m*3 16.9 C 0 km/h
380 26-08-2010 03:53:05 16.9 C 9.78 g/m*3 16.9 C 0 km/h
381 26-08-2010 04:05:06 16.9 C 9.78 g/m*3 16.9 C 0 km/h
382 26-08-2010 04:17:06 17 C 9.69 g/m*3 17 C 0 km/h
383 26-08-2010 04:29:06 17 C 9.84 g/m*3 17 C 0 km/h
384 26-08-2010 04:41:06 16.9 C 9.92 g/m*3 16.9 C 0 km/h
385 26-08-2010 04:53:06 16.9 C 10.07 g/m*3 16.9 C 0 km/h
386 26-08-2010 05:05:06 17.3 C 10.31 g/m*3 17.3 C 0 km/h
387 26-08-2010 05:17:06 18.1 C 10.35 g/m*3 18.1 C 0 km/h
388 26-08-2010 05:29:06 18.5 C 10.28 g/m*3 18.5 C 0 km/h
389 26-08-2010 05:41:06 18.8 C 10.31 g/m*3 18.8 C 0 km/h
390 26-08-2010 05:53:06 18.7 C 10.25 g/m*3 18.7 C 0 km/h
391 26-08-2010 06:05:03 18.2 C 10.1 g/m*3 18.2 C 0 km/h
392 26-08-2010 06:17:03 18.1 C 10.35 g/m*3 18.1 C 0 km/h
393 26-08-2010 06:29:03 17.9 C 10.54 g/m*3 17.9 C 0 km/h
394 26-08-2010 06:41:03 18.1 C 10.82 g/m*3 18.1 C 0 km/h
395 26-08-2010 06:53:02 18.6 C 10.82 g/m*3 18.6 C 0 km/h
396 26-08-2010 07:05:02 18.9 C 10.69 g/m*3 18.9 C 0 km/h
397 26-08-2010 07:17:02 19 C 10.59 g/m*3 19 C 0 km/h
398 26-08-2010 07:29:02 19.2 C 10.55 g/m*3 19.2 C 0 km/h
399 26-08-2010 07:41:02 19.4 C 10.68 g/m*3 19.4 C 0 km/h
400 26-08-2010 07:53:02 19.8 C 10.93 g/m*3 19.8 C 0 km/h
Sensor: Nr:Datum:Temp:Abs-Feuchte:Windchill:Wind:
Aussen-T/F 401 26-08-2010 08:05:01 20 C 10.71 g/m*3 20 C 0 km/h
402 26-08-2010 08:17:02 20.1 C 10.95 g/m*3 20.1 C 0 km/h
403 26-08-2010 08:29:02 20.2 C 11.02 g/m*3 20.2 C 0 km/h
404 26-08-2010 08:41:01 20.1 C 11.3 g/m*3 20.1 C 0 km/h
405 26-08-2010 08:53:01 20.6 C 11.63 g/m*3 20.6 C 0 km/h
406 26-08-2010 09:05:02 20.8 C 11.41 g/m*3 20.8 C 0 km/h
407 26-08-2010 09:17:02 21.1 C 11.42 g/m*3 21.1 C 0 km/h
408 26-08-2010 09:29:02 21.5 C 11.31 g/m*3 21.5 C 0 km/h
409 26-08-2010 09:41:02 22 C 11.26 g/m*3 22 C 0 km/h
410 26-08-2010 09:53:01 22.2 C 11.19 g/m*3 22.2 C 0 km/h
411 26-08-2010 10:05:02 22.6 C 11.25 g/m*3 22.6 C 0 km/h
412 26-08-2010 10:17:02 22.6 C 11.25 g/m*3 22.6 C 0 km/h
413 26-08-2010 10:29:02 22.9 C 11.24 g/m*3 22.9 C 0 km/h
414 26-08-2010 10:41:01 22.7 C 11.11 g/m*3 22.7 C 0 km/h
415 26-08-2010 10:53:02 23 C 11.1 g/m*3 23 C 0 km/h
416 26-08-2010 11:05:01 23.2 C 11.23 g/m*3 23.2 C 0 km/h
417 26-08-2010 11:17:02 23.9 C 11.25 g/m*3 23.9 C 0 km/h
418 26-08-2010 11:29:03 23.5 C 11.21 g/m*3 23.5 C 0 km/h
419 26-08-2010 11:41:01 24.1 C 11.16 g/m*3 24.1 C 0 km/h
420 26-08-2010 11:53:02 24.1 C 10.94 g/m*3 24.1 C 0 km/h
421 26-08-2010 12:05:02 24.4 C 11.13 g/m*3 24.4 C 0 km/h
422 26-08-2010 12:17:02 23.8 C 10.97 g/m*3 23.8 C 0 km/h
423 26-08-2010 12:29:02 23.4 C 11.14 g/m*3 23.4 C 0 km/h
424 26-08-2010 12:41:03 23.2 C 11.23 g/m*3 23.2 C 0 km/h
425 26-08-2010 12:53:02 22.9 C 11.24 g/m*3 22.9 C 0 km/h
Sensor: Nr:Datum:Temp:Abs-Feuchte:Windchill:Wind:
Aussen-T/F 426 26-08-2010 13:05:02 22.7 C 11.31 g/m*3 22.7 C 0 km/h
427 26-08-2010 13:17:01 22.7 C 11.31 g/m*3 22.7 C 0 km/h
428 26-08-2010 13:29:01 22.9 C 11.24 g/m*3 22.9 C 0 km/h
429 26-08-2010 13:41:02 23.3 C 11.08 g/m*3 23.3 C 0 km/h
430 26-08-2010 13:53:02 23.2 C 11.02 g/m*3 23.2 C 0 km/h
431 26-08-2010 14:05:02 23.5 C 11.21 g/m*3 23.5 C 0 km/h
432 26-08-2010 14:17:02 23.9 C 11.25 g/m*3 23.9 C 0 km/h
433 26-08-2010 14:29:02 23.9 C 11.03 g/m*3 23.9 C 0 km/h
434 26-08-2010 14:41:02 23.8 C 11.19 g/m*3 23.8 C 0 km/h
435 26-08-2010 14:53:02 23.9 C 11.25 g/m*3 23.9 C 0 km/h
436 26-08-2010 15:05:02 23.9 C 11.47 g/m*3 23.9 C 0 km/h
437 26-08-2010 15:17:02 23.8 C 11.19 g/m*3 23.8 C 0 km/h
438 26-08-2010 15:29:02 23.7 C 11.34 g/m*3 23.7 C 0 km/h
439 26-08-2010 15:41:02 23.5 C 11.42 g/m*3 23.5 C 0 km/h
440 26-08-2010 15:53:02 23.5 C 11.21 g/m*3 23.5 C 0 km/h
441 26-08-2010 16:05:02 23.9 C 11.47 g/m*3 23.9 C 0 km/h
442 26-08-2010 16:17:02 23.8 C 11.4 g/m*3 23.8 C 0 km/h
443 26-08-2010 16:29:02 23.7 C 11.34 g/m*3 23.7 C 0 km/h
444 26-08-2010 16:41:02 24.2 C 11.22 g/m*3 24.2 C 0 km/h
445 26-08-2010 16:53:02 24.1 C 10.94 g/m*3 24.1 C 0 km/h
446 26-08-2010 17:05:02 23.9 C 11.25 g/m*3 23.9 C 0 km/h
447 26-08-2010 17:17:02 23.7 C 11.34 g/m*3 23.7 C 0 km/h
448 26-08-2010 17:29:02 23.6 C 11.27 g/m*3 23.6 C 0 km/h
449 26-08-2010 17:41:02 23.5 C 11.21 g/m*3 23.5 C 0 km/h
450 26-08-2010 17:53:02 23.4 C 11.35 g/m*3 23.4 C 0 km/h
Sensor: Nr:Datum:Temp:Abs-Feuchte:Windchill:Wind:
Aussen-T/F 451 26-08-2010 18:05:02 23.4 C 11.35 g/m*3 23.4 C 0 km/h
452 26-08-2010 18:17:02 23.3 C 11.5 g/m*3 23.3 C 0 km/h
453 26-08-2010 18:29:03 23.2 C 11.85 g/m*3 23.2 C 0 km/h
454 26-08-2010 18:41:01 23 C 11.72 g/m*3 23 C 0 km/h
455 26-08-2010 18:53:02 23 C 11.92 g/m*3 23 C 0 km/h
456 26-08-2010 19:05:01 22.6 C 12.25 g/m*3 22.6 C 0 km/h
457 26-08-2010 19:17:02 22.6 C 12.25 g/m*3 22.6 C 0 km/h
458 26-08-2010 19:29:02 21.6 C 13.28 g/m*3 21.6 C 0 km/h
459 26-08-2010 19:41:02 20.7 C 14.04 g/m*3 20.7 C 0 km/h
460 26-08-2010 19:53:02 20.8 C 14.67 g/m*3 20.8 C 0 km/h
461 26-08-2010 20:05:02 21 C 14.65 g/m*3 21 C 0 km/h
462 26-08-2010 20:17:02 20.9 C 14.57 g/m*3 20.9 C 0 km/h
463 26-08-2010 20:29:02 21 C 14.47 g/m*3 21 C 0 km/h
464 26-08-2010 20:41:02 20.9 C 14.39 g/m*3 20.9 C 0 km/h
465 26-08-2010 20:53:01 20.9 C 14.39 g/m*3 20.9 C 0 km/h
466 26-08-2010 21:05:02 20.7 C 14.04 g/m*3 20.7 C 0 km/h
467 26-08-2010 21:17:01 20.7 C 14.04 g/m*3 20.7 C 0 km/h
468 26-08-2010 21:29:01 20.4 C 13.98 g/m*3 20.4 C 0 km/h
469 26-08-2010 21:41:02 20.2 C 13.99 g/m*3 20.2 C 0 km/h
470 26-08-2010 21:53:02 20.1 C 14.08 g/m*3 20.1 C 0 km/h
471 26-08-2010 22:06:04 20 C 14.34 g/m*3 20 C 0 km/h
472 26-08-2010 22:18:04 19.8 C 14.52 g/m*3 19.8 C 0 km/h
473 26-08-2010 22:30:04 19.7 C 14.6 g/m*3 19.7 C 0 km/h
474 26-08-2010 22:42:04 19.7 C 14.77 g/m*3 19.7 C 0 km/h
475 26-08-2010 22:54:04 19.6 C 14.86 g/m*3 19.6 C 0 km/h
Sensor: Nr:Datum:Temp:Abs-Feuchte:Windchill:Wind:
Aussen-T/F 476 26-08-2010 23:06:04 19.5 C 14.77 g/m*3 19.5 C 0 km/h
477 26-08-2010 23:18:04 19.5 C 14.94 g/m*3 19.5 C 0 km/h
478 26-08-2010 23:30:04 19.5 C 14.94 g/m*3 19.5 C 0 km/h
479 26-08-2010 23:42:05 19.4 C 15.02 g/m*3 19.4 C 0 km/h
480 26-08-2010 23:54:05 19.3 C 15.09 g/m*3 19.3 C 0 km/h
481 27-08-2010 00:06:05 19.2 C 15.01 g/m*3 19.2 C 0 km/h
482 27-08-2010 00:18:05 19 C 14.83 g/m*3 19 C 0 km/h
483 27-08-2010 00:30:05 19 C 14.83 g/m*3 19 C 0 km/h
484 27-08-2010 00:42:05 18.9 C 14.9 g/m*3 18.9 C 0 km/h
485 27-08-2010 00:54:05 18.8 C 14.98 g/m*3 18.8 C 0 km/h
486 27-08-2010 01:06:05 18.7 C 14.89 g/m*3 18.7 C 0 km/h
487 27-08-2010 01:18:05 18.7 C 14.89 g/m*3 18.7 C 0 km/h
488 27-08-2010 01:30:05 18.8 C 14.98 g/m*3 18.8 C 0 km/h
489 27-08-2010 01:42:05 18.8 C 14.98 g/m*3 18.8 C 0 km/h
490 27-08-2010 01:54:05 18.8 C 15.14 g/m*3 18.8 C 0 km/h
491 27-08-2010 02:06:05 18.8 C 15.14 g/m*3 18.8 C 0 km/h
492 27-08-2010 02:18:05 18.7 C 15.05 g/m*3 18.7 C 0 km/h
493 27-08-2010 02:30:05 18.5 C 14.87 g/m*3 18.5 C 0 km/h
494 27-08-2010 02:42:05 18.6 C 14.96 g/m*3 18.6 C 0 km/h
495 27-08-2010 02:54:05 18.5 C 14.87 g/m*3 18.5 C 0 km/h
496 27-08-2010 03:06:05 18.4 C 14.78 g/m*3 18.4 C 0 km/h
497 27-08-2010 03:18:05 18.4 C 14.78 g/m*3 18.4 C 0 km/h
498 27-08-2010 03:30:05 18.4 C 14.78 g/m*3 18.4 C 0 km/h
499 27-08-2010 03:42:05 18.4 C 14.78 g/m*3 18.4 C 0 km/h
500 27-08-2010 03:54:05 18.3 C 14.7 g/m*3 18.3 C 0 km/h
Sensor: Nr:Datum:Temp:Abs-Feuchte:Windchill:Wind:
Aussen-T/F 501 27-08-2010 04:06:05 18.3 C 14.7 g/m*3 18.3 C 0 km/h
502 27-08-2010 04:18:06 18.3 C 14.7 g/m*3 18.3 C 0 km/h
503 27-08-2010 04:30:06 18.4 C 14.78 g/m*3 18.4 C 0 km/h
504 27-08-2010 04:42:06 18.4 C 14.78 g/m*3 18.4 C 0 km/h
505 27-08-2010 04:54:06 18.3 C 14.7 g/m*3 18.3 C 0 km/h
506 27-08-2010 05:06:06 18.3 C 14.85 g/m*3 18.3 C 0 km/h
507 27-08-2010 05:18:06 18.3 C 14.7 g/m*3 18.3 C 0 km/h
508 27-08-2010 05:30:06 18.4 C 14.78 g/m*3 18.4 C 0 km/h
509 27-08-2010 05:42:06 18.4 C 14.94 g/m*3 18.4 C 0 km/h
510 27-08-2010 05:54:06 18.6 C 15.12 g/m*3 18.6 C 0 km/h
511 27-08-2010 06:06:06 18.7 C 15.21 g/m*3 18.7 C 0 km/h
512 27-08-2010 06:18:06 18.8 C 15.3 g/m*3 18.8 C 0 km/h
513 27-08-2010 06:30:06 18.9 C 15.39 g/m*3 18.9 C 0 km/h
514 27-08-2010 06:42:06 18.9 C 15.39 g/m*3 18.9 C 0 km/h
515 27-08-2010 06:54:06 18.8 C 15.3 g/m*3 18.8 C 0 km/h
516 27-08-2010 07:06:06 18.8 C 15.14 g/m*3 18.8 C 0 km/h
517 27-08-2010 07:18:07 18.7 C 15.05 g/m*3 18.7 C 0 km/h
518 27-08-2010 07:30:07 18.7 C 15.05 g/m*3 18.7 C 0 km/h
519 27-08-2010 07:42:07 18.6 C 14.96 g/m*3 18.6 C 0 km/h
520 27-08-2010 07:54:01 18.6 C 14.96 g/m*3 18.6 C 0 km/h
521 27-08-2010 08:06:02 18.6 C 14.96 g/m*3 18.6 C 0 km/h
522 27-08-2010 08:18:01 18.6 C 14.96 g/m*3 18.6 C 0 km/h
523 27-08-2010 08:30:01 18.6 C 14.96 g/m*3 18.6 C 0 km/h
524 27-08-2010 08:42:01 18.5 C 14.87 g/m*3 18.5 C 0 km/h
525 27-08-2010 08:54:02 18.6 C 14.96 g/m*3 18.6 C 0 km/h
Sensor: Nr:Datum:Temp:Abs-Feuchte:Windchill:Wind:
Aussen-T/F 526 27-08-2010 09:06:01 18.6 C 14.96 g/m*3 18.6 C 0 km/h
527 27-08-2010 09:18:02 18.8 C 15.14 g/m*3 18.8 C 0 km/h
528 27-08-2010 09:30:02 19.5 C 15.27 g/m*3 19.5 C 0 km/h
529 27-08-2010 09:42:01 19.7 C 15.11 g/m*3 19.7 C 0 km/h
530 27-08-2010 09:54:02 19.7 C 14.77 g/m*3 19.7 C 0 km/h
531 27-08-2010 10:06:02 19.7 C 14.6 g/m*3 19.7 C 0 km/h
532 27-08-2010 10:18:02 19.8 C 14.52 g/m*3 19.8 C 0 km/h
533 27-08-2010 10:30:02 19.4 C 14.18 g/m*3 19.4 C 0 km/h
534 27-08-2010 10:42:03 19 C 14.18 g/m*3 19 C 0 km/h
535 27-08-2010 10:54:02 18.7 C 14.25 g/m*3 18.7 C 0 km/h
536 27-08-2010 11:06:02 18.5 C 14.4 g/m*3 18.5 C 0 km/h
537 27-08-2010 11:18:01 18.3 C 13.92 g/m*3 18.3 C 0 km/h
538 27-08-2010 11:30:01 18.1 C 13.44 g/m*3 18.1 C 0 km/h
539 27-08-2010 11:42:02 17.9 C 13.13 g/m*3 17.9 C 0 km/h
540 27-08-2010 11:54:02 18 C 13.06 g/m*3 18 C 0 km/h
541 27-08-2010 12:06:02 18.7 C 13.77 g/m*3 18.7 C 0 km/h
542 27-08-2010 12:18:02 19.5 C 13.93 g/m*3 19.5 C 0 km/h
543 27-08-2010 12:30:02 20.4 C 13.62 g/m*3 20.4 C 0 km/h
544 27-08-2010 12:42:02 20.5 C 12.99 g/m*3 20.5 C 0 km/h
545 27-08-2010 12:54:02 21.4 C 13.12 g/m*3 21.4 C 0 km/h
546 27-08-2010 13:06:02 21.9 C 12.93 g/m*3 21.9 C 0 km/h
547 27-08-2010 13:18:02 22.4 C 13.11 g/m*3 22.4 C 0 km/h
548 27-08-2010 13:30:02 22.8 C 12.6 g/m*3 22.8 C 0 km/h
549 27-08-2010 13:42:02 23.4 C 12.41 g/m*3 23.4 C 0 km/h
550 27-08-2010 13:54:02 24.1 C 11.82 g/m*3 24.1 C 0 km/h
Sensor: Nr:Datum:Temp:Abs-Feuchte:Windchill:Wind:
Aussen-T/F 551 27-08-2010 14:06:02 24.2 C 11.88 g/m*3 24.2 C 0 km/h
552 27-08-2010 14:18:03 23.6 C 11.7 g/m*3 23.6 C 0 km/h
553 27-08-2010 14:30:03 22.5 C 12.78 g/m*3 22.5 C 0 km/h
554 27-08-2010 14:42:02 17 C 11 g/m*3 17 C 0 km/h
555 27-08-2010 14:54:03 16.5 C 11.94 g/m*3 16.5 C 0 km/h
556 27-08-2010 15:06:02 16.7 C 12.65 g/m*3 16.7 C 0 km/h
557 27-08-2010 15:18:02 18.3 C 13.76 g/m*3 18.3 C 0 km/h
558 27-08-2010 15:30:02 19 C 13.85 g/m*3 19 C 0 km/h
559 27-08-2010 15:42:02 19.8 C 13.66 g/m*3 19.8 C 0 km/h
560 27-08-2010 15:54:02 20.8 C 13.4 g/m*3 20.8 C 0 km/h
561 27-08-2010 16:06:01 21.8 C 12.47 g/m*3 21.8 C 0 km/h
562 27-08-2010 16:18:02 21.7 C 12.59 g/m*3 21.7 C 0 km/h
563 27-08-2010 16:30:02 21.3 C 12.68 g/m*3 21.3 C 0 km/h
564 27-08-2010 16:42:02 21.7 C 13.35 g/m*3 21.7 C 0 km/h
565 27-08-2010 16:54:02 23 C 13.36 g/m*3 23 C 0 km/h
566 27-08-2010 17:06:01 22.8 C 11.99 g/m*3 22.8 C 0 km/h
567 27-08-2010 17:18:01 22.9 C 12.47 g/m*3 22.9 C 0 km/h
568 27-08-2010 17:30:01 21.5 C 11.5 g/m*3 21.5 C 0 km/h
569 27-08-2010 17:42:02 20.2 C 11.37 g/m*3 20.2 C 0 km/h
570 27-08-2010 17:54:02 19.1 C 11.15 g/m*3 19.1 C 0 km/h
571 27-08-2010 18:06:02 17.3 C 12.08 g/m*3 17.3 C 0 km/h
572 27-08-2010 18:18:02 16.6 C 12.15 g/m*3 16.6 C 0 km/h
573 27-08-2010 18:30:02 16.4 C 12.14 g/m*3 16.4 C 0 km/h
574 27-08-2010 18:42:02 17 C 12.3 g/m*3 17 C 0 km/h
575 27-08-2010 18:54:02 16.7 C 11.37 g/m*3 16.7 C 0 km/h
Sensor: Nr:Datum:Temp:Abs-Feuchte:Windchill:Wind:
Aussen-T/F 576 27-08-2010 19:06:02 16.3 C 11.38 g/m*3 16.3 C 0 km/h
577 27-08-2010 19:18:02 16 C 11.31 g/m*3 16 C 0 km/h
578 27-08-2010 19:30:02 15.5 C 10.84 g/m*3 15.5 C 0 km/h
579 27-08-2010 19:42:02 15.3 C 10.71 g/m*3 15.3 C 0 km/h
580 27-08-2010 19:54:02 15.1 C 10.45 g/m*3 15.1 C 0 km/h
581 27-08-2010 20:06:02 15.1 C 10.58 g/m*3 15.1 C 0 km/h
582 27-08-2010 20:18:02 15.3 C 10.71 g/m*3 15.3 C 0 km/h
583 27-08-2010 20:30:02 15.3 C 10.45 g/m*3 15.3 C 0 km/h
584 27-08-2010 20:42:02 15.2 C 10.25 g/m*3 15.2 C 0 km/h
585 27-08-2010 20:54:02 14.7 C 10.2 g/m*3 14.7 C 0 km/h
586 27-08-2010 21:06:02 14.5 C 10.32 g/m*3 14.5 C 0 km/h
587 27-08-2010 21:18:03 14.5 C 10.2 g/m*3 14.5 C 0 km/h
588 27-08-2010 21:30:03 14.6 C 10.14 g/m*3 14.6 C 0 km/h
589 27-08-2010 21:42:02 14.6 C 10.14 g/m*3 14.6 C 0 km/h
590 27-08-2010 21:54:03 14.7 C 10.07 g/m*3 14.7 C 0 km/h
591 27-08-2010 22:06:02 14.8 C 10.01 g/m*3 14.8 C 0 km/h
592 27-08-2010 22:18:02 14.8 C 10.01 g/m*3 14.8 C 0 km/h
593 27-08-2010 22:30:02 14.8 C 10.01 g/m*3 14.8 C 0 km/h
594 27-08-2010 22:43:28 14.8 C 10.01 g/m*3 14.8 C 0 km/h
595 27-08-2010 22:55:28 14.5 C 10.07 g/m*3 14.5 C 0 km/h
596 27-08-2010 23:07:28 13.8 C 9.65 g/m*3 13.8 C 0 km/h
597 27-08-2010 23:19:28 13.9 C 9.59 g/m*3 13.9 C 0 km/h
598 27-08-2010 23:31:28 13.8 C 9.29 g/m*3 13.8 C 0 km/h
599 27-08-2010 23:43:28 14.1 C 9.1 g/m*3 14.1 C 0 km/h
600 27-08-2010 23:55:28 14.2 C 9.04 g/m*3 14.2 C 0 km/h
Sensor: Nr:Datum:Temp:Abs-Feuchte:Windchill:Wind:
Aussen-T/F 601 28-08-2010 00:07:28 14.1 C 9.1 g/m*3 14.1 C 0 km/h
602 28-08-2010 00:19:28 13.9 C 9.11 g/m*3 13.9 C 0 km/h
603 28-08-2010 00:31:28 14 C 9.05 g/m*3 14 C 0 km/h
604 28-08-2010 00:43:28 13.7 C 9.35 g/m*3 13.7 C 0 km/h
605 28-08-2010 00:55:29 13.2 C 9.42 g/m*3 13.2 C 0 km/h
606 28-08-2010 01:07:29 13.2 C 9.64 g/m*3 13.2 C 0 km/h
607 28-08-2010 01:19:29 13.1 C 9.81 g/m*3 13.1 C 0 km/h
608 28-08-2010 01:31:29 13 C 9.87 g/m*3 13 C 0 km/h
609 28-08-2010 01:43:29 13.1 C 10.04 g/m*3 13.1 C 0 km/h
610 28-08-2010 01:55:29 13.1 C 10.04 g/m*3 13.1 C 0 km/h
611 28-08-2010 02:07:29 13.2 C 9.99 g/m*3 13.2 C 0 km/h
612 28-08-2010 02:19:29 13.2 C 9.99 g/m*3 13.2 C 0 km/h
613 28-08-2010 02:31:29 13.1 C 9.81 g/m*3 13.1 C 0 km/h
614 28-08-2010 02:43:29 13.1 C 9.7 g/m*3 13.1 C 0 km/h
615 28-08-2010 02:55:29 13.1 C 9.59 g/m*3 13.1 C 0 km/h
616 28-08-2010 03:07:29 13.1 C 9.59 g/m*3 13.1 C 0 km/h
617 28-08-2010 03:19:29 13.1 C 9.59 g/m*3 13.1 C 0 km/h
618 28-08-2010 03:31:29 13.1 C 9.47 g/m*3 13.1 C 0 km/h
619 28-08-2010 03:43:29 13.1 C 9.59 g/m*3 13.1 C 0 km/h
620 28-08-2010 03:55:29 13.1 C 9.59 g/m*3 13.1 C 0 km/h
621 28-08-2010 04:07:29 12.9 C 9.47 g/m*3 12.9 C 0 km/h
622 28-08-2010 04:19:30 12.9 C 9.47 g/m*3 12.9 C 0 km/h
623 28-08-2010 04:31:30 12.5 C 9.24 g/m*3 12.5 C 0 km/h
624 28-08-2010 04:43:30 12.3 C 9.23 g/m*3 12.3 C 0 km/h
625 28-08-2010 04:55:30 12.1 C 9.12 g/m*3 12.1 C 0 km/h
Sensor: Nr:Datum:Temp:Abs-Feuchte:Windchill:Wind:
Aussen-T/F 626 28-08-2010 05:07:30 12.2 C 9.28 g/m*3 12.2 C 0 km/h
627 28-08-2010 05:19:30 12.3 C 9.34 g/m*3 12.3 C 0 km/h
628 28-08-2010 05:31:30 12.1 C 9.01 g/m*3 12.1 C 0 km/h
629 28-08-2010 05:43:30 11.9 C 9 g/m*3 11.9 C 0 km/h
630 28-08-2010 05:55:30 12.1 C 9.12 g/m*3 12.1 C 0 km/h
631 28-08-2010 06:07:30 11.7 C 8.89 g/m*3 11.7 C 0 km/h
632 28-08-2010 06:19:30 11.6 C 8.83 g/m*3 11.6 C 0 km/h
633 28-08-2010 06:31:30 11.7 C 8.79 g/m*3 11.7 C 0 km/h
634 28-08-2010 06:43:30 11.5 C 8.68 g/m*3 11.5 C 0 km/h
635 28-08-2010 06:55:02 11.4 C 8.62 g/m*3 11.4 C 0 km/h
636 28-08-2010 07:07:02 11.3 C 8.67 g/m*3 11.3 C 0 km/h
637 28-08-2010 07:19:02 11.3 C 8.77 g/m*3 11.3 C 0 km/h
638 28-08-2010 07:31:01 11.6 C 8.94 g/m*3 11.6 C 0 km/h
639 28-08-2010 07:43:01 12 C 8.95 g/m*3 12 C 0 km/h
640 28-08-2010 07:55:02 12.4 C 9.07 g/m*3 12.4 C 0 km/h
641 28-08-2010 08:07:01 12.6 C 9.07 g/m*3 12.6 C 0 km/h
642 28-08-2010 08:19:02 12.8 C 8.96 g/m*3 12.8 C 0 km/h
643 28-08-2010 08:31:01 13 C 8.85 g/m*3 13 C 0 km/h
644 28-08-2010 08:43:01 13.4 C 8.95 g/m*3 13.4 C 0 km/h
645 28-08-2010 08:55:02 13.6 C 8.83 g/m*3 13.6 C 0 km/h
646 28-08-2010 09:07:02 14.3 C 8.97 g/m*3 14.3 C 0 km/h
647 28-08-2010 09:19:01 14.2 C 8.55 g/m*3 14.2 C 0 km/h
648 28-08-2010 09:31:02 14.1 C 8.62 g/m*3 14.1 C 0 km/h
649 28-08-2010 09:43:02 14.1 C 8.37 g/m*3 14.1 C 0 km/h
650 28-08-2010 09:55:02 14.4 C 8.41 g/m*3 14.4 C 0 km/h
Sensor: Nr:Datum:Temp:Abs-Feuchte:Windchill:Wind:
Aussen-T/F 651 28-08-2010 10:07:02 14.6 C 8.38 g/m*3 14.6 C 0 km/h
652 28-08-2010 10:19:02 14.6 C 8.38 g/m*3 14.6 C 0 km/h
653 28-08-2010 10:31:02 15.1 C 8.39 g/m*3 15.1 C 0 km/h
654 28-08-2010 10:43:02 15.6 C 8.51 g/m*3 15.6 C 0 km/h
655 28-08-2010 10:55:02 15.8 C 8.08 g/m*3 15.8 C 0 km/h
656 28-08-2010 11:07:03 15.8 C 8.21 g/m*3 15.8 C 0 km/h
657 28-08-2010 11:19:02 16.4 C 7.96 g/m*3 16.4 C 0 km/h
658 28-08-2010 11:31:03 16.9 C 7.77 g/m*3 16.9 C 0 km/h
659 28-08-2010 11:43:03 16.7 C 7.25 g/m*3 16.7 C 0 km/h
660 28-08-2010 11:55:02 16.4 C 7.82 g/m*3 16.4 C 0 km/h
661 28-08-2010 12:07:02 17 C 7.67 g/m*3 17 C 0 km/h
662 28-08-2010 12:19:02 18 C 7.22 g/m*3 18 C 0 km/h
663 28-08-2010 12:31:02 13.7 C 8.05 g/m*3 13.7 C 0 km/h
664 28-08-2010 12:43:02 13.7 C 9.35 g/m*3 13.7 C 0 km/h
665 28-08-2010 12:55:02 14.7 C 10.58 g/m*3 14.7 C 0 km/h
666 28-08-2010 13:07:02 15.7 C 10.84 g/m*3 15.7 C 0 km/h
667 28-08-2010 13:19:03 15.8 C 10.23 g/m*3 15.8 C 0 km/h
668 28-08-2010 13:31:02 15.5 C 10.31 g/m*3 15.5 C 0 km/h
669 28-08-2010 13:43:02 17.2 C 11.57 g/m*3 17.2 C 0 km/h
670 28-08-2010 13:55:03 17 C 10.13 g/m*3 17 C 0 km/h
671 28-08-2010 14:07:02 15.8 C 8.88 g/m*3 15.8 C 0 km/h
672 28-08-2010 14:19:03 16.8 C 8.01 g/m*3 16.8 C 0 km/h
673 28-08-2010 14:31:02 15.9 C 6.91 g/m*3 15.9 C 0 km/h
674 28-08-2010 14:43:02 14.9 C 7.01 g/m*3 14.9 C 0 km/h
675 28-08-2010 14:55:02 14.6 C 7.63 g/m*3 14.6 C 0 km/h
Sensor: Nr:Datum:Temp:Abs-Feuchte:Windchill:Wind:
Aussen-T/F 676 28-08-2010 15:07:02 14.7 C 7.68 g/m*3 14.7 C 0 km/h
677 28-08-2010 15:19:02 15.8 C 7.94 g/m*3 15.8 C 0 km/h
678 28-08-2010 15:31:03 17.6 C 7.65 g/m*3 17.6 C 0 km/h
679 28-08-2010 15:43:03 17.9 C 6.72 g/m*3 17.9 C 0 km/h
680 28-08-2010 15:55:02 17.6 C 7.05 g/m*3 17.6 C 0 km/h
681 28-08-2010 16:07:01 17 C 6.8 g/m*3 17 C 0 km/h
682 28-08-2010 16:19:02 14.9 C 7.65 g/m*3 14.9 C 0 km/h
683 28-08-2010 16:31:02 13.9 C 8.27 g/m*3 13.9 C 0 km/h
684 28-08-2010 16:43:02 14.5 C 8.95 g/m*3 14.5 C 0 km/h
685 28-08-2010 16:55:01 15.2 C 8.44 g/m*3 15.2 C 0 km/h
686 28-08-2010 17:07:02 15.9 C 9.21 g/m*3 15.9 C 0 km/h
687 28-08-2010 17:19:01 16 C 8.72 g/m*3 16 C 0 km/h
688 28-08-2010 17:31:02 15.7 C 8.3 g/m*3 15.7 C 0 km/h
689 28-08-2010 17:43:02 15.2 C 8.05 g/m*3 15.2 C 0 km/h
690 28-08-2010 17:55:01 15.2 C 9.09 g/m*3 15.2 C 0 km/h
691 28-08-2010 18:07:02 16.2 C 8.27 g/m*3 16.2 C 0 km/h
692 28-08-2010 18:19:01 17 C 6.95 g/m*3 17 C 0 km/h
693 28-08-2010 18:31:02 18.1 C 7.26 g/m*3 18.1 C 0 km/h
694 28-08-2010 18:43:02 18.3 C 7.04 g/m*3 18.3 C 0 km/h
695 28-08-2010 18:55:01 18.2 C 7.46 g/m*3 18.2 C 0 km/h
696 28-08-2010 19:07:02 16.8 C 7.86 g/m*3 16.8 C 0 km/h
697 28-08-2010 19:19:02 16.1 C 7.95 g/m*3 16.1 C 0 km/h
698 28-08-2010 19:31:02 15 C 8.59 g/m*3 15 C 0 km/h
699 28-08-2010 19:43:02 14.2 C 8.79 g/m*3 14.2 C 0 km/h
700 28-08-2010 19:55:01 14.2 C 8.3 g/m*3 14.2 C 0 km/h
Sensor: Nr:Datum:Temp:Abs-Feuchte:Windchill:Wind:
Aussen-T/F 701 28-08-2010 20:07:02 13.4 C 8.6 g/m*3 13.4 C 0 km/h
702 28-08-2010 20:19:02 13 C 8.85 g/m*3 13 C 0 km/h
703 28-08-2010 20:31:01 13.1 C 9.13 g/m*3 13.1 C 0 km/h
704 28-08-2010 20:43:01 13.1 C 9.24 g/m*3 13.1 C 0 km/h
705 28-08-2010 20:55:02 12.9 C 9.35 g/m*3 12.9 C 0 km/h
706 28-08-2010 21:07:01 12.8 C 9.3 g/m*3 12.8 C 0 km/h
707 28-08-2010 21:19:02 12.7 C 9.24 g/m*3 12.7 C 0 km/h
708 28-08-2010 21:31:01 12.4 C 9.07 g/m*3 12.4 C 0 km/h
709 28-08-2010 21:43:01 12.2 C 8.96 g/m*3 12.2 C 0 km/h
710 28-08-2010 21:55:02 12.2 C 9.06 g/m*3 12.2 C 0 km/h
711 28-08-2010 22:08:02 12.3 C 9.12 g/m*3 12.3 C 0 km/h
712 28-08-2010 22:20:02 12.3 C 9.01 g/m*3 12.3 C 0 km/h
713 28-08-2010 22:32:03 12.2 C 8.85 g/m*3 12.2 C 0 km/h
714 28-08-2010 22:44:03 12.1 C 8.79 g/m*3 12.1 C 0 km/h
715 28-08-2010 22:56:03 12.3 C 9.01 g/m*3 12.3 C 0 km/h
716 28-08-2010 23:08:03 12.6 C 8.96 g/m*3 12.6 C 0 km/h
717 28-08-2010 23:20:03 12.7 C 8.79 g/m*3 12.7 C 0 km/h
718 28-08-2010 23:32:03 12.4 C 8.74 g/m*3 12.4 C 0 km/h
719 28-08-2010 23:44:03 12.1 C 8.58 g/m*3 12.1 C 0 km/h
720 28-08-2010 23:56:03 12 C 8.53 g/m*3 12 C 0 km/h
721 29-08-2010 00:08:03 11.8 C 8.42 g/m*3 11.8 C 0 km/h
722 29-08-2010 00:20:03 11.8 C 8.42 g/m*3 11.8 C 0 km/h
723 29-08-2010 00:32:03 11.9 C 8.58 g/m*3 11.9 C 0 km/h
724 29-08-2010 00:44:03 12 C 8.53 g/m*3 12 C 0 km/h
725 29-08-2010 00:56:03 12 C 8.42 g/m*3 12 C 0 km/h
Sensor: Nr:Datum:Temp:Abs-Feuchte:Windchill:Wind:
Aussen-T/F 726 29-08-2010 01:08:03 11.7 C 8.47 g/m*3 11.7 C 0 km/h
727 29-08-2010 01:20:03 11.5 C 8.37 g/m*3 11.5 C 0 km/h
728 29-08-2010 01:32:03 11.5 C 8.47 g/m*3 11.5 C 0 km/h
729 29-08-2010 01:44:03 11.4 C 8.42 g/m*3 11.4 C 0 km/h
730 29-08-2010 01:56:03 11.4 C 8.52 g/m*3 11.4 C 0 km/h
731 29-08-2010 02:08:03 11.7 C 8.58 g/m*3 11.7 C 0 km/h
732 29-08-2010 02:20:03 11.7 C 8.47 g/m*3 11.7 C 0 km/h
733 29-08-2010 02:32:03 11.7 C 8.58 g/m*3 11.7 C 0 km/h
734 29-08-2010 02:44:04 11.8 C 8.53 g/m*3 11.8 C 0 km/h
735 29-08-2010 02:56:04 11.8 C 8.53 g/m*3 11.8 C 0 km/h
736 29-08-2010 03:08:04 11.8 C 8.42 g/m*3 11.8 C 0 km/h
737 29-08-2010 03:20:04 11.8 C 8.53 g/m*3 11.8 C 0 km/h
738 29-08-2010 03:32:04 11.8 C 8.53 g/m*3 11.8 C 0 km/h
739 29-08-2010 03:44:04 11.7 C 8.47 g/m*3 11.7 C 0 km/h
740 29-08-2010 03:56:04 11.7 C 8.47 g/m*3 11.7 C 0 km/h
741 29-08-2010 04:08:04 11.6 C 8.42 g/m*3 11.6 C 0 km/h
742 29-08-2010 04:20:04 11.4 C 8.31 g/m*3 11.4 C 0 km/h
743 29-08-2010 04:32:04 11.4 C 8.42 g/m*3 11.4 C 0 km/h
744 29-08-2010 04:44:04 11.4 C 8.42 g/m*3 11.4 C 0 km/h
745 29-08-2010 04:56:04 11.7 C 8.37 g/m*3 11.7 C 0 km/h
746 29-08-2010 05:08:04 11.8 C 8.31 g/m*3 11.8 C 0 km/h
747 29-08-2010 05:20:04 11.7 C 8.26 g/m*3 11.7 C 0 km/h
748 29-08-2010 05:32:04 11.7 C 8.26 g/m*3 11.7 C 0 km/h
749 29-08-2010 05:44:04 11.7 C 8.37 g/m*3 11.7 C 0 km/h
750 29-08-2010 05:56:04 11.8 C 8.42 g/m*3 11.8 C 0 km/h
Sensor: Nr:Datum:Temp:Abs-Feuchte:Windchill:Wind:
Aussen-T/F 751 29-08-2010 06:08:04 12.2 C 8.31 g/m*3 12.2 C 0 km/h
752 29-08-2010 06:20:04 12.1 C 8.26 g/m*3 12.1 C 0 km/h
753 29-08-2010 06:32:04 12.2 C 8.2 g/m*3 12.2 C 0 km/h
754 29-08-2010 06:44:04 12 C 8.31 g/m*3 12 C 0 km/h
755 29-08-2010 06:56:04 12 C 8.42 g/m*3 12 C 0 km/h
756 29-08-2010 07:08:02 12.1 C 8.36 g/m*3 12.1 C 0 km/h
757 29-08-2010 07:20:02 12.2 C 8.31 g/m*3 12.2 C 0 km/h
758 29-08-2010 07:32:02 12.2 C 8.31 g/m*3 12.2 C 0 km/h
759 29-08-2010 07:44:02 12.2 C 8.31 g/m*3 12.2 C 0 km/h
760 29-08-2010 07:56:02 12.3 C 8.36 g/m*3 12.3 C 0 km/h
761 29-08-2010 08:08:02 12.1 C 8.36 g/m*3 12.1 C 0 km/h
762 29-08-2010 08:20:01 12.2 C 8.42 g/m*3 12.2 C 0 km/h
763 29-08-2010 08:32:02 12.5 C 8.36 g/m*3 12.5 C 0 km/h
764 29-08-2010 08:44:02 12.6 C 8.3 g/m*3 12.6 C 0 km/h
765 29-08-2010 08:56:01 12.8 C 8.29 g/m*3 12.8 C 0 km/h
766 29-08-2010 09:08:02 13.5 C 8.3 g/m*3 13.5 C 0 km/h
767 29-08-2010 09:20:02 13.8 C 8.1 g/m*3 13.8 C 0 km/h
768 29-08-2010 09:32:01 14 C 8.08 g/m*3 14 C 0 km/h
769 29-08-2010 09:44:01 14.3 C 8.23 g/m*3 14.3 C 0 km/h
770 29-08-2010 09:56:03 14.4 C 8.16 g/m*3 14.4 C 0 km/h
771 29-08-2010 10:08:03 14.9 C 8.28 g/m*3 14.9 C 0 km/h
772 29-08-2010 10:20:03 15.3 C 7.97 g/m*3 15.3 C 0 km/h
773 29-08-2010 10:32:02 15.3 C 7.97 g/m*3 15.3 C 0 km/h
774 29-08-2010 10:44:02 15.7 C 8.03 g/m*3 15.7 C 0 km/h
775 29-08-2010 10:56:01 15.8 C 7.94 g/m*3 15.8 C 0 km/h
Sensor: Nr:Datum:Temp:Abs-Feuchte:Windchill:Wind:
Aussen-T/F 776 29-08-2010 11:08:02 16.3 C 8.05 g/m*3 16.3 C 0 km/h
777 29-08-2010 11:20:01 16.4 C 7.96 g/m*3 16.4 C 0 km/h
778 29-08-2010 11:32:01 16.6 C 7.91 g/m*3 16.6 C 0 km/h
779 29-08-2010 11:44:01 16 C 7.77 g/m*3 16 C 0 km/h
780 29-08-2010 11:56:01 16 C 7.9 g/m*3 16 C 0 km/h
781 29-08-2010 12:08:01 15.9 C 7.85 g/m*3 15.9 C 0 km/h
782 29-08-2010 12:20:02 14 C 9.17 g/m*3 14 C 0 km/h
783 29-08-2010 12:32:01 14.6 C 9.76 g/m*3 14.6 C 0 km/h
784 29-08-2010 12:44:01 15.1 C 9.16 g/m*3 15.1 C 0 km/h
785 29-08-2010 12:56:03 16 C 9.13 g/m*3 16 C 0 km/h
786 29-08-2010 13:08:02 16.9 C 8.92 g/m*3 16.9 C 0 km/h
787 29-08-2010 13:20:02 16.9 C 8.63 g/m*3 16.9 C 0 km/h
788 29-08-2010 13:32:02 16.4 C 8.37 g/m*3 16.4 C 0 km/h
789 29-08-2010 13:44:02 15.3 C 8.62 g/m*3 15.3 C 0 km/h
790 29-08-2010 13:56:02 14.7 C 8.94 g/m*3 14.7 C 0 km/h
791 29-08-2010 14:08:01 15.2 C 8.83 g/m*3 15.2 C 0 km/h
792 29-08-2010 14:20:02 16.4 C 8.51 g/m*3 16.4 C 0 km/h
793 29-08-2010 14:32:02 17 C 7.96 g/m*3 17 C 0 km/h
794 29-08-2010 14:44:02 17.1 C 8.3 g/m*3 17.1 C 0 km/h
795 29-08-2010 14:56:01 16.6 C 8.33 g/m*3 16.6 C 0 km/h
796 29-08-2010 15:08:01 15.7 C 8.3 g/m*3 15.7 C 0 km/h
797 29-08-2010 15:20:01 15.5 C 8.2 g/m*3 15.5 C 0 km/h
798 29-08-2010 15:32:02 14.2 C 8.91 g/m*3 14.2 C 0 km/h
799 29-08-2010 15:44:02 14.7 C 9.69 g/m*3 14.7 C 0 km/h
800 29-08-2010 15:56:02 15.3 C 9.4 g/m*3 15.3 C 0 km/h
Sensor: Nr:Datum:Temp:Abs-Feuchte:Windchill:Wind:
Aussen-T/F 801 29-08-2010 16:08:02 15.1 C 9.03 g/m*3 15.1 C 0 km/h
802 29-08-2010 16:20:02 15.5 C 8.99 g/m*3 15.5 C 0 km/h
803 29-08-2010 16:32:02 15.9 C 8.53 g/m*3 15.9 C 0 km/h
804 29-08-2010 16:44:03 16.2 C 8.14 g/m*3 16.2 C 0 km/h
805 29-08-2010 16:56:02 16.1 C 7.81 g/m*3 16.1 C 0 km/h
806 29-08-2010 17:08:02 15.9 C 7.85 g/m*3 15.9 C 0 km/h
807 29-08-2010 17:20:02 15.6 C 7.98 g/m*3 15.6 C 0 km/h
808 29-08-2010 17:32:02 15.2 C 8.18 g/m*3 15.2 C 0 km/h
809 29-08-2010 17:44:02 14.1 C 8.74 g/m*3 14.1 C 0 km/h
810 29-08-2010 17:56:02 14 C 8.68 g/m*3 14 C 0 km/h
811 29-08-2010 18:08:02 13.8 C 8.94 g/m*3 13.8 C 0 km/h
812 29-08-2010 18:20:01 13.4 C 9.3 g/m*3 13.4 C 0 km/h
813 29-08-2010 18:32:01 13.1 C 9.59 g/m*3 13.1 C 0 km/h
814 29-08-2010 18:44:01 12.7 C 9.46 g/m*3 12.7 C 0 km/h
815 29-08-2010 18:56:02 12.3 C 9.23 g/m*3 12.3 C 0 km/h
816 29-08-2010 19:08:02 12.2 C 9.28 g/m*3 12.2 C 0 km/h
817 29-08-2010 19:20:01 12.2 C 9.39 g/m*3 12.2 C 0 km/h
818 29-08-2010 19:32:02 12 C 9.38 g/m*3 12 C 0 km/h
819 29-08-2010 19:44:02 11.8 C 9.26 g/m*3 11.8 C 0 km/h
820 29-08-2010 19:56:02 11.8 C 9.16 g/m*3 11.8 C 0 km/h
821 29-08-2010 20:08:02 11.8 C 8.95 g/m*3 11.8 C 0 km/h
822 29-08-2010 20:20:03 11.8 C 8.95 g/m*3 11.8 C 0 km/h
823 29-08-2010 20:32:02 11.7 C 8.89 g/m*3 11.7 C 0 km/h
824 29-08-2010 20:44:02 11.7 C 8.99 g/m*3 11.7 C 0 km/h
825 29-08-2010 20:56:01 11.9 C 9 g/m*3 11.9 C 0 km/h
Sensor: Nr:Datum:Temp:Abs-Feuchte:Windchill:Wind:
Aussen-T/F 826 29-08-2010 21:08:01 12 C 8.95 g/m*3 12 C 0 km/h
827 29-08-2010 21:20:02 12.2 C 8.96 g/m*3 12.2 C 0 km/h
828 29-08-2010 21:32:01 12.3 C 9.01 g/m*3 12.3 C 0 km/h
829 29-08-2010 21:44:01 12 C 8.95 g/m*3 12 C 0 km/h
830 29-08-2010 21:56:02 9.7 C 7.74 g/m*3 9.7 C 0 km/h
831 29-08-2010 22:09:03 9.3 C 7.82 g/m*3 9.3 C 0 km/h
832 29-08-2010 22:21:03 9.2 C 7.95 g/m*3 9.2 C 0 km/h
833 29-08-2010 22:33:03 9.2 C 8.04 g/m*3 9.2 C 0 km/h
834 29-08-2010 22:45:03 9.2 C 8.13 g/m*3 9.2 C 0 km/h
835 29-08-2010 22:57:03 9.1 C 8.16 g/m*3 9.1 C 0 km/h
836 29-08-2010 23:09:03 9 C 8.11 g/m*3 9 C 0 km/h
837 29-08-2010 23:21:03 9 C 8.11 g/m*3 9 C 0 km/h
838 29-08-2010 23:33:03 9 C 8.11 g/m*3 9 C 0 km/h
839 29-08-2010 23:45:03 9.3 C 8.27 g/m*3 9.3 C 0 km/h
840 29-08-2010 23:57:03 9.3 C 8.18 g/m*3 9.3 C 0 km/h

Legende:
   Min
   Max


Maximal/Minimal-Werte vom 23.08.2010 - 29.08.2010

Sensor Min Max Avg
Temp
(Aussen-T/F)
9 °C
29-08-2010  23:09:03
26.7 °C
23-08-2010  16:14:02
17.75 °C
Abs-Feuchte
(Aussen-T/F)
4.21 g/m*3
24-08-2010  17:15:02
16.1 g/m*3
23-08-2010  12:26:02
9.99 g/m*3
Windchill
(Aussen-T/F)
9 C
29-08-2010  23:09:03
26.7 C
23-08-2010  16:14:02
17.73 C

Die Daten stammen von einer Davis Vantage Pro 2 Wetter-Station und werden unter Linux mit der Software wview2wettercgi und aufbereitet. Alle Angaben erfolgen ohne Gewähr für ihre Vollständigkeit oder Richtigkeit.
Kontakt: Rainer Krienke krienke@uni-koblenz.de . Meine Webseiten an der Uni Koblenz oder privat.
Version: $Revision: 0.78 $